Location: France
(46.2276°N, 2.2137°E)
Time: 20:30:10
(UTC+02:00)

ISS - Pass Details

Date: 17 April 2026
Orbit: 414 x 424 km, 51.6° (Epoch: 12 May)

Event Time Altitude Azimuth Distance (km) Brightness Sun altitude
Exits shadow 06:10:58 - 192° (SSW) 2,239 -0.4 -9.0°
Reaches altitude 10° 06:13:28 10° 167° (SSE) 1,492 -1.1 -8.6°
Maximum altitude 06:15:19 14° 134° (SE) 1,271 -1.0 -8.3°
Drops below altitude 10° 06:17:10 10° 100° (E) 1,502 0.0 -8.0°
Sets 06:20:01 0° 74° (ENE) 2,374 2.3 -7.5°
